Theta_e
322 324 325 325 324 322 322 323 324 327 330 330 328 328 329 329 329 328 330 329 323 326 330 325 326 325 325 325 322 321 322 321 321 321 322 324 325 326 326 327 328 328 328 328 327 328 328 328 328 328 329 328 328 326 324 323 323 322 321 320 320 320 320 320 319 319 318 318 318 317 317 316 315 316 315 315 315 314 313 312 312 312 312 311 311 311
322 326 326 324 324 323 322 322 323 325 327 330 330 329 329 328 329 328 329 330 324 325 331 329 327 326 324 325 323 321 322 321 320 320 321 323 325 325 326 327 328 328 328 328 327 327 327 327 328 328 329 329 329 329 328 328 327 326 324 322 321 320 320 320 320 320 319 319 318 317 317 316 316 316 316 316 315 315 315 314 313 313 312 312 312 311
323 325 324 322 322 323 323 322 323 324 325 329 330 330 331 329 330 329 329 330 326 326 332 332 330 328 325 325 324 322 323 323 322 322 323 324 324 325 325 326 327 327 327 327 327 326 326 327 327 328 329 329 329 329 329 329 329 329 327 326 324 322 320 320 320 320 320 320 320 319 318 317 318 317 317 317 317 317 316 316 315 314 313 313 313 312
324 323 321 320 321 322 323 324 324 324 325 327 329 331 332 331 331 331 330 330 327 327 332 333 329 328 326 326 325 324 323 324 325 325 325 325 325 325 326 326 326 327 327 327 326 326 326 326 326 327 329 329 330 330 330 329 329 329 329 329 327 325 323 322 321 321 321 321 321 321 320 319 319 319 319 319 318 318 317 316 316 315 315 314 313 313
323 322 320 320 321 321 323 324 324 326 326 326 328 329 331 332 331 331 329 327 327 326 327 329 330 329 328 328 327 325 324 324 325 325 325 325 326 326 326 326 327 326 327 327 327 326 326 326 325 326 329 330 329 330 330 329 329 329 329 329 329 328 327 325 324 323 322 322 321 321 322 322 321 320 320 320 319 318 317 316 316 316 316 315 315 314
322 321 320 320 321 321 322 324 324 325 326 326 327 327 329 331 330 331 329 328 331 331 327 328 333 333 331 330 329 328 326 325 323 323 324 324 325 326 325 326 326 326 327 327 327 327 326 326 325 326 328 330 329 330 330 329 329 329 329 329 329 328 328 327 326 325 323 322 322 322 322 322 322 320 320 320 318 317 316 316 316 316 316 316 316 316
321 320 321 322 322 322 322 323 324 325 326 327 327 326 327 330 331 332 331 332 334 334 329 328 332 334 332 330 329 330 329 328 326 324 323 323 324 324 324 325 326 326 326 326 327 327 327 327 326 325 326 328 329 329 329 329 329 329 329 329 329 328 328 327 327 326 324 324 323 322 322 322 322 321 321 321 320 320 319 318 317 317 317 317 317 317
321 321 323 323 322 322 322 322 323 324 325 327 328 327 327 329 331 332 332 333 332 331 330 328 329 331 331 329 327 328 329 328 329 327 324 322 323 324 325 325 326 325 326 326 326 327 327 328 327 325 326 327 328 328 329 329 329 329 328 328 328 328 327 327 326 326 325 324 324 323 323 322 322 322 322 322 322 321 321 321 320 319 318 318 317 317
320 321 322 322 322 322 322 322 323 323 324 327 329 328 328 328 330 330 330 331 328 329 332 329 329 331 331 330 329 328 328 328 327 327 325 323 322 323 324 325 326 326 327 327 327 327 328 328 327 326 327 328 328 329 329 328 328 329 328 328 327 327 327 326 326 325 325 325 324 324 323 323 322 323 322 322 322 322 322 322 322 321 320 319 319 318
320 321 320 321 322 322 323 324 324 324 324 325 327 327 328 328 329 330 329 328 326 328 332 331 330 332 332 332 331 330 328 327 326 326 324 323 323 323 324 325 326 327 327 328 328 328 328 328 328 327 328 328 328 328 328 328 328 327 327 327 326 326 326 326 325 325 324 324 324 324 323 323 323 323 323 322 322 322 322 322 323 323 322 322 321 320
320 319 319 320 321 321 324 325 323 323 322 323 326 327 327 327 328 328 327 327 328 330 330 329 329 330 331 331 330 330 330 328 328 328 325 324 323 323 324 325 326 327 327 328 328 328 328 328 328 328 328 328 328 328 328 327 327 327 326 326 326 326 326 325 325 325 324 324 323 323 323 323 323 323 323 323 323 322 323 322 323 323 323 323 322 322
321 320 319 320 319 319 322 323 321 321 321 324 329 329 327 326 326 327 327 327 331 332 328 326 327 329 330 331 329 328 328 330 330 329 329 326 323 323 324 325 326 326 327 327 328 328 328 328 328 328 328 328 328 328 328 328 327 326 326 326 326 326 325 325 325 325 324 324 323 323 323 323 323 323 323 323 323 323 323 323 323 323 323 323 323 323
322 321 320 320 318 319 321 323 322 322 323 325 328 328 326 327 328 328 329 329 331 329 326 327 327 327 328 327 327 327 328 332 329 325 326 325 322 324 325 325 326 326 326 327 327 328 328 328 328 328 328 328 327 327 328 327 327 327 326 326 325 325 325 324 324 324 324 323 323 323 323 323 323 323 323 323 323 323 323 323 323 323 323 323 323 323
323 321 320 320 319 319 320 322 323 324 324 325 326 326 324 326 328 327 327 330 329 326 326 327 325 326 326 323 323 324 324 328 325 322 324 324 324 325 326 326 325 325 326 326 327 327 327 327 327 327 327 327 327 327 327 327 327 327 326 326 325 326 325 324 324 324 323 323 323 323 323 322 323 322 323 323 323 323 323 323 323 323 323 323 323 323
324 324 322 321 320 320 319 320 322 323 324 324 324 324 323 324 326 324 324 327 327 325 325 325 325 327 326 323 325 322 318 320 321 323 324 323 325 326 325 325 324 325 326 326 326 326 326 326 326 326 326 327 326 326 327 326 326 326 326 326 326 326 326 325 324 324 324 324 323 323 323 322 322 322 323 323 323 323 323 323 324 324 323 324 324 323
323 325 323 321 320 319 319 319 320 322 323 323 323 324 323 322 322 323 324 324 326 326 325 324 326 328 323 321 323 320 319 320 318 320 321 321 324 325 325 325 325 325 325 325 326 325 325 325 325 326 326 326 326 325 325 325 325 325 325 325 326 326 326 325 324 324 324 323 323 323 323 323 322 322 322 323 323 323 323 323 323 323 323 324 324 324
323 325 322 321 320 318 318 319 319 321 323 323 324 324 323 321 321 323 323 322 325 326 324 323 325 325 321 320 321 320 322 323 321 320 318 320 324 325 325 325 325 325 325 324 325 325 325 325 325 326 326 325 325 324 324 324 324 325 325 324 324 324 324 324 323 323 323 323 323 322 323 323 322 322 322 322 322 322 323 323 323 324 324 324 324 324
320 325 322 320 322 320 317 318 319 319 320 323 324 323 322 323 325 325 323 323 324 324 323 324 324 321 321 321 322 321 320 320 325 325 320 318 322 322 323 325 325 325 325 325 325 325 325 325 325 325 324 324 324 323 323 323 323 324 324 324 323 323 323 322 322 322 322 323 323 322 323 322 322 322 321 321 322 322 322 323 323 323 323 324 324 325
316 324 324 320 322 321 318 320 322 321 320 322 322 321 322 323 324 324 323 322 323 322 321 321 321 319 320 319 320 324 323 319 322 325 324 322 319 319 322 325 325 325 324 324 324 324 324 324 324 324 323 323 322 322 322 322 322 323 323 323 323 322 322 322 322 322 322 323 322 322 322 321 321 321 321 321 321 321 322 322 322 323 323 323 324 325
313 320 323 320 321 321 320 321 322 323 322 321 322 322 322 322 322 322 322 320 321 321 319 319 319 318 318 316 316 323 327 325 322 322 325 323 318 319 323 324 324 323 322 322 322 323 324 323 324 323 322 322 322 322 322 321 321 321 322 322 322 322 322 322 322 322 322 322 322 321 321 321 320 320 320 321 321 321 321 321 321 322 322 323 323 324
313 315 319 321 320 321 323 323 322 323 323 322 323 324 323 324 324 323 321 320 321 320 319 319 319 317 318 317 316 318 323 327 327 325 324 320 318 321 323 323 324 321 318 318 321 322 323 322 322 321 320 321 321 321 320 320 320 320 321 321 320 320 320 321 321 321 322 321 321 321 320 320 320 320 320 320 320 320 320 320 320 321 321 322 323 323
314 314 317 320 319 321 324 320 317 318 321 323 323 323 323 323 323 323 323 322 321 321 321 320 318 319 322 323 319 317 319 322 324 324 322 318 318 321 321 323 323 322 320 319 320 321 321 320 320 319 319 319 319 320 319 319 320 320 320 319 319 319 319 320 321 321 321 321 320 320 319 319 320 319 320 319 319 319 319 318 319 320 321 321 321 322
314 314 315 318 318 319 319 315 312 313 316 319 319 321 322 322 322 322 322 323 322 321 322 320 319 319 322 326 324 320 318 316 316 317 318 318 318 320 320 321 322 322 321 320 320 320 320 319 319 318 318 318 318 319 319 319 319 319 319 319 319 319 319 319 320 320 320 320 319 319 318 318 318 318 318 318 318 317 316 316 317 318 319 320 320 320
313 315 315 317 316 317 316 313 311 311 311 315 317 319 321 322 322 321 321 322 322 322 321 321 321 319 319 329 328 318 313 312 312 313 315 316 317 319 320 319 320 321 320 320 319 319 319 319 319 318 318 318 318 319 319 319 318 319 319 319 319 319 318 319 319 319 319 318 318 318 318 317 317 317 317 317 316 316 315 314 315 317 318 318 317 317
314 315 316 318 318 317 317 316 314 312 311 313 316 317 319 321 322 321 322 322 321 322 322 322 322 319 319 327 326 319 317 316 312 311 313 315 316 318 319 318 319 319 319 319 319 319 319 318 318 318 318 318 318 318 319 318 319 319 319 318 318 317 317 317 317 317 316 316 316 316 316 316 316 316 316 316 315 315 315 314 314 315 316 316 316 316
314 315 315 317 318 318 319 319 317 315 314 313 313 315 317 319 321 322 322 322 321 322 321 321 322 320 319 321 321 321 323 320 315 312 312 313 315 315 317 318 318 319 318 318 318 318 318 318 318 318 317 318 318 318 319 319 319 318 318 317 317 317 316 316 315 315 315 314 314 314 315 314 315 314 314 314 314 315 315 315 314 314 315 314 314 314
313 314 314 315 317 317 317 316 315 315 315 315 315 315 315 317 318 320 321 322 322 321 321 321 321 321 320 319 319 320 321 324 325 318 310 312 315 315 317 318 317 318 318 318 318 318 318 318 318 318 318 317 318 318 319 319 318 317 317 318 318 318 317 316 315 315 315 314 314 314 314 314 314 314 313 313 313 314 314 314 314 314 314 314 314 314
312 313 313 314 315 315 315 314 313 314 315 315 316 315 314 315 315 316 318 320 320 321 322 321 320 321 320 318 318 319 317 322 325 316 309 312 314 314 315 316 316 318 318 318 318 318 318 318 317 318 318 318 318 319 319 318 317 317 318 318 318 318 318 318 318 317 317 316 314 314 315 315 314 314 313 313 313 313 313 313 313 313 313 313 313 313
312 312 313 313 313 313 313 313 313 313 313 313 314 314 314 314 314 315 316 316 317 318 320 319 318 319 319 317 318 318 315 315 316 312 311 314 313 313 313 313 315 317 318 318 318 317 318 318 318 318 318 318 319 319 319 318 317 317 318 318 318 318 318 318 319 318 318 317 315 315 315 314 314 313 313 313 313 313 313 313 312 312 311 311 311 312
311 312 312 312 312 312 312 312 312 312 312 313 313 313 313 313 313 314 314 314 314 315 315 315 315 316 315 314 314 314 313 313 312 313 314 315 315 315 315 314 314 315 316 317 318 318 318 318 318 318 319 319 319 319 319 318 316 316 317 318 319 319 318 318 318 318 318 318 317 315 314 314 313 313 313 312 312 312 312 311 311 310 310 310 310 310
310 312 311 311 312 312 311 311 311 311 313 313 312 312 312 312 312 312 313 313 313 313 313 313 314 315 315 314 312 311 311 312 312 313 313 314 314 315 316 317 317 316 316 316 316 317 317 316 317 317 317 317 318 318 318 317 315 316 318 319 319 319 319 318 318 319 319 318 317 316 314 314 313 313 313 312 311 311 311 310 309 309 309 309 309 309
309 311 310 311 313 313 312 311 310 310 312 312 312 312 311 311 312 311 311 312 312 313 314 313 314 316 317 315 312 311 311 311 311 311 312 313 313 314 315 316 316 317 317 317 317 316 316 316 316 316 315 316 316 316 317 317 317 318 319 319 319 319 319 319 318 319 319 318 318 317 315 313 312 312 312 312 311 310 310 310 309 309 309 310 310 309
309 310 310 311 313 312 311 311 311 311 312 313 313 312 312 311 311 311 311 311 312 313 314 314 315 316 317 316 314 313 312 311 310 310 311 312 312 313 313 313 314 316 317 318 317 316 316 316 316 315 316 316 317 316 317 318 319 319 319 319 319 319 319 319 319 318 318 319 318 317 316 313 312 312 312 311 311 311 310 310 310 309 309 309 310 309
308 310 310 310 311 311 310 310 311 312 313 313 312 312 311 311 311 312 312 311 312 313 314 314 315 315 315 315 315 314 312 311 311 311 311 312 312 312 312 312 313 314 315 317 318 318 317 317 317 316 317 317 318 318 318 319 319 319 319 319 319 319 319 319 319 319 319 319 319 318 317 314 312 311 312 313 314 314 313 311 310 310 310 309 310 309
308 309 309 308 309 309 308 309 311 312 311 310 311 311 311 310 311 311 312 311 311 312 313 313 314 315 313 312 313 313 311 310 311 311 311 311 311 312 312 312 313 313 314 315 317 318 318 318 318 318 318 318 319 319 319 319 319 318 318 318 318 318 319 319 318 319 319 319 319 319 318 315 312 311 313 314 315 315 315 313 311 310 309 309 310 310
308 308 308 308 308 308 307 308 311 311 308 308 310 310 309 310 311 311 312 312 312 311 312 312 312 312 312 311 311 311 311 311 311 311 311 312 312 312 312 313 313 314 314 315 316 317 318 318 318 318 318 318 318 318 318 318 318 317 318 318 318 318 318 318 319 319 319 319 319 319 318 317 315 312 312 314 314 314 315 315 312 310 310 310 310 310
308 308 308 308 308 308 307 307 309 309 307 307 308 308 308 310 312 313 313 314 313 311 311 312 311 311 311 311 310 311 311 312 312 312 311 312 312 312 312 314 315 315 315 315 315 316 317 317 317 316 316 316 316 317 317 317 317 317 317 318 318 318 318 318 318 318 318 319 318 318 318 317 317 316 315 314 313 314 316 316 312 310 310 310 310 309
307 309 309 308 307 308 307 307 308 308 307 307 307 307 306 307 311 313 312 314 315 313 310 311 311 311 311 311 310 310 311 313 313 312 312 312 312 312 313 315 315 314 314 313 313 313 312 312 312 311 311 311 312 313 313 314 315 315 316 317 317 317 317 317 318 318 317 317 317 317 317 317 317 317 316 315 314 315 317 316 312 310 310 310 309 309
306 307 308 307 306 307 307 306 306 306 306 307 308 308 305 304 309 312 311 311 313 311 310 311 311 311 311 310 310 311 312 314 313 312 312 312 311 312 313 314 313 311 309 309 309 309 308 307 307 307 307 307 307 307 308 310 312 314 316 316 316 316 316 316 317 316 316 316 316 316 316 316 317 317 317 316 315 316 317 315 312 310 310 310 309 309
305 307 307 306 306 306 306 306 305 305 306 309 311 309 305 303 307 311 310 310 309 308 309 311 311 310 310 310 310 312 313 313 313 312 312 312 311 311 312 312 312 309 306 306 307 307 307 306 306 305 305 306 306 306 306 308 309 311 313 314 314 315 315 316 316 316 316 316 316 316 316 316 316 316 316 316 316 316 316 314 311 310 310 310 309 309
305 306 306 306 305 305 306 305 305 305 307 309 308 305 304 305 309 310 309 308 307 307 308 309 310 310 310 310 310 312 312 312 312 312 312 311 310 309 309 309 309 307 306 306 307 306 306 305 305 305 305 305 306 306 306 306 307 308 309 309 311 313 315 316 316 315 316 316 316 316 316 316 316 316 316 316 316 316 316 314 311 310 310 310 310 310
305 306 306 306 305 304 305 305 304 305 306 305 304 303 304 307 309 308 308 307 307 307 308 309 310 310 310 309 309 310 310 310 311 311 310 309 307 306 306 306 306 306 306 306 306 306 305 305 305 306 306 306 306 306 306 306 306 307 307 307 309 311 313 314 314 314 315 315 315 316 316 315 315 315 315 315 315 315 316 314 311 310 309 309 309 309
304 305 306 306 305 304 304 304 303 304 303 302 302 303 305 307 308 307 306 306 306 307 307 309 309 308 308 307 307 307 308 308 308 308 307 306 305 305 305 306 306 306 306 306 306 306 305 305 305 306 306 306 306 306 306 306 306 306 307 308 309 311 312 312 313 313 313 313 314 315 315 315 315 315 315 315 314 314 315 314 312 310 309 309 310 310
303 304 304 306 306 305 304 304 305 304 302 301 302 303 305 306 306 304 304 305 305 305 305 305 305 305 305 304 304 305 305 305 305 305 305 305 305 305 306 305 306 306 306 306 305 305 305 305 305 305 306 305 305 305 305 305 305 306 307 308 309 311 311 311 312 312 312 312 312 313 314 314 315 315 315 315 314 314 314 314 313 311 310 310 310 310
302 302 302 304 305 305 304 304 305 305 302 301 302 303 303 304 304 303 304 304 304 304 303 303 303 304 304 304 304 304 304 304 304 304 304 305 305 305 305 305 305 305 305 304 305 304 304 305 305 305 305 304 304 305 304 304 305 305 306 308 309 309 310 310 310 311 311 312 312 312 312 312 313 315 315 315 315 314 314 314 312 311 310 310 311 311
298 297 299 303 304 302 302 302 302 302 301 301 302 302 302 303 303 303 303 303 303 303 302 302 302 303 303 303 303 303 303 303 303 303 303 303 303 303 304 303 303 303 303 303 303 303 303 303 304 304 303 303 303 302 302 302 302 303 305 306 307 308 309 309 309 310 310 311 311 311 311 311 311 312 314 315 315 315 314 314 312 311 310 310 311 311
297 295 298 301 301 301 302 303 301 300 300 300 299 299 299 300 300 300 300 300 300 301 301 301 301 301 302 302 301 301 301 301 300 300 301 301 301 301 301 301 301 301 301 301 301 301 301 301 301 301 301 301 301 300 299 299 300 301 303 304 305 307 308 308 308 309 309 310 311 311 311 311 311 310 311 313 315 315 315 314 313 312 310 310 311 311
298 297 299 301 300 299 300 300 298 297 297 297 297 297 297 298 298 298 298 298 298 299 299 300 300 300 300 300 300 299 299 299 299 299 299 299 299 299 299 299 299 299 300 299 299 299 299 298 298 298 298 298 298 298 298 299 299 300 301 302 303 305 307 308 308 308 309 310 310 310 310 310 311 310 310 311 312 314 315 315 314 313 312 310 311 311
297 298 300 301 300 299 299 298 296 297 297 297 297 298 297 298 298 298 298 298 298 299 299 299 299 299 298 298 298 297 297 298 297 297 297 297 298 298 298 298 298 298 298 298 298 297 297 297 297 297 297 297 297 298 298 299 299 300 301 301 302 304 306 307 308 308 309 309 309 310 310 310 310 310 310 310 311 312 314 314 314 314 313 312 311 310
296 298 299 299 298 299 298 297 297 298 298 298 297 297 297 298 298 298 298 298 298 298 298 298 298 297 297 297 297 296 296 296 296 296 296 296 296 297 297 297 297 297 297 297 297 297 297 297 297 297 297 297 298 298 298 299 299 300 301 302 303 305 306 307 307 308 309 309 309 309 310 310 310 310 310 310 310 310 312 313 313 313 314 313 312 310
296 297 297 297 297 297 296 296 296 296 296 296 296 296 296 296 296 296 296 296 296 296 296 296 296 296 296 295 295 295 295 295 295 295 295 295 295 295 296 296 296 296 296 296 296 296 296 297 297 298 298 298 298 298 298 299 299 300 302 303 304 305 306 306 307 307 308 308 309 309 309 309 309 309 309 309 309 310 311 312 312 312 312 312 312 311
Wind_Speed
15 7 6 11 15 16 15 15 14 6 2 3 7 7 9 9 7 6 5 4 7 7 7 10 11 14 16 10 11 20 20 16 18 21 24 27 29 31 32 35 38 41 44 42 39 37 35 33 30 28 29 30 33 34 36 36 36 36 36 36 35 34 34 34 35 35 35 36 37 37 37 36 36 35 35 36 36 36 37 36 35 35 34 34 34 34
12 8 12 19 17 14 15 14 13 12 5 2 3 6 8 9 7 6 6 5 6 5 5 6 9 13 17 12 12 18 15 16 22 23 26 32 35 36 37 41 44 45 46 44 43 41 38 36 34 32 30 30 31 32 33 34 34 35 36 37 37 36 37 36 36 36 37 37 37 38 37 36 36 36 36 35 35 36 36 36 36 36 36 36 36 36
7 11 19 19 12 10 12 13 12 12 9 2 1 3 4 5 3 3 4 3 4 4 4 5 8 11 15 13 13 16 14 19 29 29 31 35 36 37 38 42 44 45 46 46 44 42 38 35 34 35 35 35 34 33 32 32 31 32 34 35 37 38 39 38 37 38 37 37 37 37 37 38 38 37 37 36 35 36 36 37 37 37 37 37 37 37
8 14 18 12 10 13 11 10 10 8 8 7 5 4 3 3 3 3 3 3 4 3 2 4 7 8 11 11 9 15 21 25 31 32 35 37 36 38 41 42 43 44 46 46 45 44 40 37 36 35 36 36 37 37 36 35 33 33 34 34 35 36 37 37 37 38 37 37 37 37 38 38 40 39 39 38 38 38 38 37 37 37 37 38 37 38
12 9 10 12 12 15 10 7 10 8 8 10 10 9 5 3 4 3 1 2 2 2 1 2 8 8 9 14 11 13 20 24 29 29 31 36 38 41 43 43 45 45 46 46 46 46 44 41 39 36 35 35 35 37 36 35 34 34 35 34 34 34 34 35 36 36 36 37 38 39 39 40 42 42 42 42 41 40 39 38 37 37 37 37 37 38
15 9 16 16 11 11 10 9 13 12 8 10 13 13 8 5 4 3 3 1 2 3 2 2 7 7 5 12 12 8 10 15 21 21 24 33 37 39 42 44 47 48 47 48 48 49 47 44 42 38 37 36 36 37 35 34 33 34 35 35 35 34 34 35 35 35 36 38 39 40 41 42 43 44 44 43 41 39 39 38 38 38 38 38 37 37
9 10 15 13 9 12 13 11 14 14 9 9 9 12 10 6 4 4 5 3 0 5 3 2 6 7 4 10 11 7 7 10 13 14 19 29 33 35 41 44 47 47 47 48 48 49 49 46 44 42 40 39 38 38 36 35 34 34 35 35 36 36 35 36 35 36 37 38 40 41 42 42 43 45 44 42 40 39 39 39 40 41 41 40 39 38
9 13 12 12 13 13 13 12 14 16 11 6 6 13 13 7 5 4 5 3 1 3 4 2 3 6 11 12 10 10 10 10 12 13 15 24 30 34 40 44 44 45 45 46 48 49 49 47 45 43 41 39 39 38 38 37 36 36 35 35 35 36 36 36 36 37 38 39 40 41 42 43 44 44 43 42 41 41 41 41 42 43 43 42 41 40
13 16 15 17 16 12 12 11 11 14 10 4 6 12 13 8 5 3 4 2 1 3 5 5 2 6 13 7 6 10 13 14 14 15 16 19 27 33 38 42 42 42 42 43 46 47 47 46 45 43 40 38 38 38 39 38 37 37 36 35 35 35 35 35 35 37 39 39 40 41 42 43 44 43 43 43 43 43 43 43 42 43 43 43 43 42
11 19 21 17 13 9 7 5 11 15 10 4 6 7 8 8 6 3 3 2 1 2 9 10 5 5 12 4 6 7 11 14 12 12 15 18 26 31 35 39 41 41 41 40 41 41 42 42 40 40 39 37 37 37 36 36 36 36 36 36 36 36 36 35 36 37 38 40 41 42 43 43 43 43 42 43 44 45 44 44 43 43 43 43 43 43
5 17 19 13 11 9 9 9 14 17 10 8 7 6 6 3 3 2 2 3 1 4 15 18 11 8 12 5 6 6 5 7 7 7 10 15 23 29 33 38 41 42 42 41 40 39 37 36 35 36 37 34 33 33 34 33 33 34 35 36 37 36 36 36 37 37 38 40 42 43 43 43 43 42 43 44 45 45 45 45 43 42 42 42 42 42
3 9 9 9 15 13 10 7 9 12 13 10 6 5 4 1 2 2 1 3 5 9 15 17 11 9 13 7 4 2 2 3 6 8 9 10 19 29 34 37 39 40 40 41 42 40 37 35 35 35 35 32 32 32 32 31 30 31 32 34 36 36 35 36 36 37 38 40 42 43 43 43 43 43 44 44 44 44 45 44 43 43 43 43 42 42
6 6 6 10 17 19 13 4 3 6 10 8 6 8 7 3 3 4 5 5 8 11 7 3 6 9 15 13 5 6 5 3 5 7 11 14 19 28 32 34 36 36 37 39 40 40 38 37 36 36 36 35 34 33 31 30 29 28 29 31 34 34 34 34 35 36 38 39 41 42 42 42 43 43 44 45 44 44 44 44 44 44 44 43 43 42
6 6 8 9 11 19 18 9 7 8 10 11 10 10 9 6 6 8 8 5 7 11 4 6 3 5 10 12 10 13 14 13 14 13 15 18 20 24 27 28 30 31 33 35 35 36 36 34 35 37 38 38 36 34 32 31 30 29 28 29 32 32 31 32 33 34 36 38 39 40 41 42 43 44 44 44 44 44 44 44 44 44 44 44 43 42
10 8 10 11 10 18 19 14 12 10 10 12 9 8 9 7 7 8 7 7 7 8 3 4 2 4 6 5 3 6 7 11 20 21 18 18 20 23 25 26 27 27 28 30 31 32 32 32 35 38 38 36 34 32 30 30 29 28 27 27 28 28 26 28 29 30 33 34 35 37 38 40 41 42 42 43 44 44 44 44 45 45 44 44 44 42
12 8 10 16 15 20 19 14 13 10 6 7 5 7 10 9 8 4 3 6 5 3 3 4 4 4 7 8 3 3 3 3 9 14 13 15 20 25 28 30 31 31 30 31 32 34 34 35 37 36 33 31 29 27 26 25 25 24 24 24 25 25 24 25 26 28 31 32 34 35 35 36 37 39 41 41 42 42 43 43 44 44 44 44 43 43
8 5 10 15 13 19 23 17 17 15 8 6 7 9 9 7 6 2 2 2 3 3 5 5 7 6 8 15 13 13 12 6 4 7 10 17 24 28 30 33 35 35 34 35 36 37 37 38 36 33 29 28 27 27 25 23 22 21 21 21 23 24 23 24 25 27 30 32 34 34 33 33 34 36 38 38 39 40 40 42 43 44 44 44 44 43
3 2 7 14 13 19 26 21 16 15 11 7 10 11 3 2 2 2 3 1 2 5 5 7 12 10 7 11 6 6 14 14 10 8 11 17 23 24 28 34 37 36 36 37 38 37 37 37 35 31 30 29 29 28 26 24 22 22 22 21 22 23 23 23 23 25 28 30 32 32 31 30 31 32 34 35 36 37 39 41 42 43 43 43 44 43
0 1 2 11 13 13 17 16 10 12 10 5 7 11 7 3 5 5 4 4 4 6 6 9 14 11 10 12 6 2 8 11 11 10 8 10 15 19 26 34 37 37 39 40 39 37 36 36 35 34 33 33 31 28 25 23 23 23 23 22 23 23 23 23 23 25 27 27 28 27 27 28 29 31 32 33 34 36 39 40 40 41 41 41 42 43
0 1 1 5 8 9 9 9 8 10 7 2 2 8 7 5 7 8 8 7 7 8 8 10 12 8 9 14 12 6 6 8 9 9 7 10 17 24 30 35 37 37 38 40 41 38 37 37 37 37 37 35 33 30 27 25 25 24 23 23 25 26 27 27 26 26 26 25 25 26 27 29 31 32 33 34 35 37 39 39 39 40 40 40 41 42
1 1 1 2 2 8 8 8 11 14 12 6 6 9 9 5 2 4 7 6 6 7 8 9 11 9 6 8 9 9 10 10 11 11 11 15 24 32 36 38 39 37 35 37 38 36 36 37 35 33 32 31 30 28 25 24 23 23 23 24 25 27 29 29 27 26 26 26 27 29 31 32 33 34 34 35 36 38 39 38 39 39 39 40 41 41
1 2 2 0 1 5 5 4 4 7 9 9 9 10 12 11 6 6 9 8 6 7 6 7 12 11 5 4 7 10 10 10 13 14 12 18 29 35 37 39 40 39 38 37 36 33 32 31 28 26 26 26 26 22 20 20 20 21 22 23 24 24 24 24 25 26 27 29 30 32 32 32 33 34 35 36 36 37 38 38 39 38 39 40 39 39
2 3 2 2 2 4 3 3 4 2 1 2 5 6 9 10 9 9 10 8 8 8 6 6 12 11 4 3 5 6 6 9 14 14 11 17 28 32 34 35 37 39 39 38 38 37 36 34 31 29 26 25 23 20 20 20 19 20 20 20 20 20 19 19 22 25 27 29 30 30 30 31 32 33 34 35 35 36 37 37 38 38 39 39 37 37
2 2 2 2 1 3 4 4 5 3 2 2 4 4 7 9 10 10 7 4 6 9 8 6 11 11 6 3 3 3 3 4 9 13 13 16 23 29 32 33 33 36 37 36 37 39 40 39 37 33 28 24 22 21 21 20 18 17 16 16 16 16 16 17 19 22 25 27 27 28 29 30 31 32 34 35 35 36 36 36 36 37 37 37 36 36
6 3 3 3 1 2 2 1 1 1 2 1 2 4 6 8 10 10 5 2 4 9 12 10 10 10 7 2 3 5 4 3 3 8 13 16 22 27 30 30 31 33 35 35 36 37 38 38 37 34 29 25 23 21 19 18 16 14 13 12 13 14 15 17 19 21 23 25 26 27 28 29 29 31 32 33 34 35 35 35 35 35 36 36 36 35
8 3 5 6 5 5 5 3 2 2 2 2 2 4 5 7 9 9 6 7 8 9 11 10 9 9 9 3 2 6 5 5 5 6 10 16 21 25 27 28 30 31 33 34 34 34 34 34 35 34 30 25 21 19 17 15 13 11 9 9 10 13 15 17 19 20 22 24 25 27 27 28 29 29 30 30 31 32 33 33 33 34 35 36 36 36
2 1 6 7 8 9 6 2 3 3 3 2 3 5 4 4 6 6 5 6 7 7 10 11 9 10 15 16 10 3 4 3 6 6 9 14 19 22 26 27 27 27 29 29 29 31 33 33 32 32 30 25 18 15 14 14 11 8 7 6 8 12 14 16 18 20 21 23 25 26 26 27 29 29 29 29 29 30 30 31 33 34 35 36 37 38
2 2 6 7 11 13 10 5 5 4 5 5 6 7 7 6 6 7 8 5 4 5 10 9 7 10 17 21 15 4 5 5 5 7 11 15 17 19 22 24 25 26 27 28 31 34 35 33 29 28 27 24 17 15 16 15 11 7 5 7 9 12 15 17 19 21 22 23 24 25 25 25 28 30 31 31 32 32 32 33 34 35 37 38 39 39
2 4 6 7 12 14 9 5 7 7 7 7 10 12 12 11 11 12 13 9 4 5 4 4 7 9 12 16 11 4 6 7 9 13 19 22 23 22 22 22 25 26 28 29 29 30 31 29 26 24 23 21 17 16 18 17 12 7 8 12 14 16 18 19 21 23 23 25 25 25 25 26 27 29 31 32 33 34 34 35 35 36 38 39 40 40
1 3 5 7 11 12 6 5 6 7 6 5 9 11 11 12 13 14 14 11 10 9 4 3 10 11 9 13 11 4 6 10 12 16 21 25 26 27 28 28 29 29 29 30 31 30 29 27 24 22 20 18 17 18 20 19 14 10 15 19 21 22 23 23 24 24 24 25 25 25 27 29 29 29 30 32 33 35 35 36 36 37 38 39 39 39
2 3 5 6 7 9 8 7 6 8 8 7 8 7 8 9 9 11 10 7 7 7 5 5 6 10 9 11 14 12 11 11 10 10 14 21 25 27 30 31 33 34 33 34 35 34 34 32 27 22 19 18 19 19 19 17 15 17 23 26 26 27 28 28 28 27 25 25 25 26 29 31 31 31 30 31 33 35 36 37 38 38 38 39 39 39
2 2 2 4 4 5 7 10 9 9 9 10 9 9 10 8 7 7 7 6 7 7 5 5 4 7 7 9 17 20 14 8 8 9 12 19 22 22 26 30 33 35 34 33 33 33 35 35 30 23 19 18 17 17 17 19 21 26 30 31 31 32 33 34 33 31 29 27 27 29 30 32 34 34 33 32 33 35 37 38 39 39 38 39 39 39
4 2 1 3 4 2 4 9 9 7 6 8 8 12 14 10 5 4 4 7 9 7 6 5 6 6 6 7 13 19 15 9 10 13 14 17 18 18 23 28 31 33 34 34 34 32 31 29 26 23 21 21 20 20 23 27 31 33 35 36 37 38 39 39 38 36 33 30 30 32 32 34 36 36 33 31 31 33 35 38 40 40 39 38 38 38
5 4 2 2 2 1 2 5 6 5 5 3 2 7 13 13 10 8 8 9 9 7 5 4 5 6 8 9 11 16 17 15 16 18 16 17 18 19 24 29 30 31 32 34 36 35 34 32 29 26 25 26 28 29 32 35 38 40 41 42 42 42 41 42 41 39 37 35 34 34 34 35 36 35 30 27 28 31 34 36 39 40 39 38 37 38
6 4 2 1 2 2 1 3 3 5 3 1 4 3 6 10 13 13 10 7 8 9 7 6 8 11 12 13 18 21 21 18 20 22 21 20 20 21 25 29 30 31 32 35 36 37 35 34 33 32 33 35 36 38 41 43 45 46 45 44 44 43 43 44 44 42 40 38 37 36 35 35 35 33 29 27 29 32 35 36 37 39 39 38 38 38
6 4 2 2 2 1 1 1 4 3 2 2 6 5 1 3 6 6 4 5 9 11 10 11 14 14 12 16 24 26 19 17 19 23 24 21 18 20 22 23 25 27 30 32 34 36 35 33 33 35 37 39 40 41 43 43 43 43 43 43 44 45 45 45 45 44 42 40 38 37 38 38 37 36 34 34 34 35 37 37 37 37 37 37 37 37
6 5 2 1 2 2 1 1 3 2 3 2 5 3 3 4 5 6 3 5 7 12 13 14 15 14 14 19 26 24 16 13 15 20 19 12 10 15 16 16 16 20 24 27 27 28 29 31 32 32 33 35 37 39 40 40 40 40 39 40 42 44 45 45 45 44 43 41 40 39 40 40 40 40 40 40 41 40 39 38 37 36 36 35 35 35
5 5 3 3 2 2 3 1 2 1 3 6 5 4 5 7 8 7 4 4 5 13 18 16 14 16 14 16 21 18 11 9 10 9 5 6 12 15 13 12 14 18 22 24 24 23 23 25 27 28 29 31 32 34 36 36 37 37 36 37 39 41 42 43 43 43 42 41 39 38 39 40 41 41 40 41 42 41 38 37 37 36 34 33 32 31
2 1 3 4 2 2 3 3 3 3 4 7 6 4 6 12 11 6 3 5 6 12 19 17 14 16 14 15 17 12 5 6 9 6 5 13 17 14 12 16 18 20 24 24 23 23 25 27 29 30 30 30 30 30 30 31 31 33 35 37 38 38 39 40 40 40 39 37 36 35 35 36 37 38 38 39 39 37 35 36 36 34 32 31 29 28
3 2 3 4 4 4 4 3 3 3 5 7 7 4 4 11 11 7 2 7 4 9 20 22 16 15 18 20 15 7 5 8 11 14 18 19 18 16 19 23 23 23 27 27 25 26 29 32 34 34 33 32 32 31 30 29 28 29 32 35 38 40 40 39 39 39 38 38 37 36 34 34 34 35 35 35 35 33 33 34 34 32 31 30 29 29
3 3 4 5 5 5 6 5 3 3 5 7 6 5 7 9 7 5 7 5 0 3 13 19 19 21 23 21 13 8 12 19 22 24 24 20 22 26 27 25 25 27 30 30 29 30 32 34 34 34 34 34 34 33 32 31 30 30 32 35 37 37 37 37 36 36 37 38 39 38 37 35 34 33 33 33 32 31 31 33 34 32 30 29 30 30
4 3 3 5 6 4 4 3 3 4 7 7 5 6 7 6 4 6 4 1 3 6 5 9 17 23 23 19 14 14 19 23 24 24 22 22 28 32 31 29 30 31 32 32 32 32 33 33 33 34 35 35 36 36 35 34 34 35 37 38 36 32 30 29 29 30 32 35 37 37 37 36 35 33 32 31 32 31 30 32 33 33 30 29 30 31
5 4 2 5 6 4 3 3 4 5 5 4 7 5 4 5 6 6 3 4 13 14 7 7 12 16 14 14 15 17 19 22 23 23 25 28 32 33 33 32 32 34 35 36 35 33 32 32 33 34 35 36 37 38 37 38 38 38 38 38 34 30 26 24 23 26 29 31 33 34 35 35 35 34 33 32 31 31 31 31 33 33 31 29 31 32
3 4 3 4 5 5 4 5 5 3 3 7 8 3 5 12 16 12 5 9 17 15 9 8 13 17 19 20 21 22 21 22 24 26 29 32 33 33 34 34 33 35 36 36 35 33 32 32 33 35 36 38 39 39 40 41 42 41 39 36 34 30 26 23 24 27 29 31 32 33 33 34 34 34 34 33 32 32 32 32 33 34 33 31 31 32
3 3 3 3 4 4 4 5 5 6 9 10 9 7 7 14 19 17 13 15 21 19 12 9 12 17 21 22 23 25 25 25 26 28 29 32 34 33 33 34 34 33 33 33 33 33 33 33 35 36 38 40 41 42 42 43 44 44 40 36 34 32 29 28 31 34 34 34 34 34 34 34 33 34 34 34 33 33 33 33 34 35 36 34 33 34
2 1 3 1 2 2 3 7 8 10 18 22 19 15 15 17 19 20 19 21 25 24 18 16 17 20 22 23 23 24 26 26 26 27 28 29 30 30 30 32 32 32 33 34 35 36 37 38 38 39 41 42 43 45 46 45 46 46 43 39 36 33 32 33 36 38 39 38 37 36 37 37 36 35 34 34 33 33 34 35 35 36 38 38 37 36
2 0 2 1 1 1 3 6 7 9 19 25 21 16 17 19 19 19 20 23 27 29 26 23 21 22 23 23 21 22 25 26 27 29 29 28 29 31 32 34 36 37 38 39 40 40 41 43 44 45 46 47 47 48 49 48 46 46 45 43 39 36 34 35 36 38 39 38 39 39 40 40 40 38 36 36 34 33 33 35 37 38 39 41 41 39
1 1 2 3 3 2 3 8 13 19 27 30 28 26 25 26 27 27 25 26 28 31 30 26 24 23 24 25 24 25 30 32 31 31 32 33 35 37 38 39 40 41 42 44 44 43 43 46 49 51 52 52 51 50 51 50 48 46 46 45 43 41 39 37 36 36 37 37 39 40 42 43 42 41 39 38 38 37 35 35 37 40 41 42 42 41
2 1 2 3 2 3 5 9 13 17 23 29 34 32 24 19 19 21 21 20 22 28 32 32 32 31 32 35 35 33 34 37 35 33 35 38 41 44 43 42 42 43 43 44 45 45 46 48 51 53 55 56 54 51 50 50 49 48 47 45 44 43 43 41 38 37 37 37 38 40 42 45 45 43 41 40 40 40 39 37 38 40 41 41 41 42
3 3 3 2 1 4 5 7 7 6 9 20 28 26 17 12 14 19 23 27 30 34 38 41 43 43 42 43 42 37 36 41 41 38 38 42 45 47 48 47 45 45 45 44 44 46 48 50 52 53 55 56 54 51 48 48 49 50 48 44 43 44 45 44 43 41 39 38 38 39 42 45 46 45 43 41 40 41 42 42 40 41 41 41 41 41
8 6 5 4 5 8 12 18 18 12 10 21 32 32 28 27 27 28 33 36 37 38 40 41 46 50 51 50 47 39 37 42 45 42 40 43 46 47 48 48 47 48 49 49 47 46 48 50 51 51 52 53 52 50 48 47 48 50 49 45 42 43 46 47 47 45 42 39 38 39 41 44 47 46 44 42 41 40 41 43 44 44 43 43 41 41
Wind_Direction
172 173 194 204 207 203 201 205 213 205 117 164 174 188 207 218 234 215 235 242 184 200 236 225 232 248 251 246 239 240 238 240 247 252 257 259 260 262 263 265 266 268 270 273 275 274 271 272 271 265 260 259 259 259 259 259 259 258 257 257 257 256 256 254 252 251 251 252 252 251 251 252 251 249 248 247 247 248 248 248 248 247 247 247 247 248
178 201 218 213 209 200 202 206 211 217 215 87 160 203 213 218 232 215 222 231 180 200 248 229 235 251 252 249 242 239 233 237 241 244 252 255 258 260 261 263 265 267 269 272 273 272 271 269 265 263 261 258 258 258 258 258 259 259 258 257 256 256 256 255 255 254 254 253 254 254 255 257 257 255 254 253 252 252 252 252 250 249 248 247 247 248
183 220 221 211 202 199 207 205 205 218 221 241 227 218 226 211 222 231 221 199 170 201 248 240 239 250 255 250 239 237 229 235 239 238 243 249 253 256 257 260 262 265 268 269 271 270 270 268 265 263 261 260 260 260 261 261 261 260 258 256 255 255 255 255 256 257 258 258 258 258 259 259 259 259 260 260 259 257 257 256 255 253 251 249 248 248
194 226 218 188 183 203 207 193 191 209 221 229 223 218 236 170 166 232 221 185 189 206 231 256 260 256 262 262 244 234 232 239 244 242 244 247 250 254 256 259 261 263 266 268 269 270 269 268 266 263 260 259 260 260 260 260 261 260 258 256 255 255 255 255 256 258 261 262 261 261 260 260 259 259 260 260 259 258 257 256 256 255 253 252 251 250
214 217 169 167 193 199 193 174 179 195 215 223 219 218 219 153 184 221 181 187 218 264 259 286 283 268 249 256 255 234 228 237 243 241 243 246 248 253 256 257 258 259 262 264 266 267 267 267 265 261 258 259 259 258 258 258 260 259 258 257 257 257 257 257 257 258 260 261 260 259 257 256 255 255 255 254 255 255 255 255 255 255 254 254 253 252
224 174 147 184 196 170 180 186 188 195 210 224 219 214 202 159 184 180 137 97 18 286 256 133 270 272 230 241 250 235 217 229 241 237 238 244 247 250 253 254 256 256 258 260 262 264 266 266 265 261 257 257 256 256 256 258 259 259 258 257 257 257 257 257 257 258 258 258 258 257 256 255 255 255 255 256 257 258 259 260 259 258 257 256 256 254
219 169 159 188 171 162 191 202 195 191 204 231 208 193 199 177 151 138 124 104 21 274 281 163 245 275 268 249 247 237 226 223 236 237 234 241 244 246 250 253 254 256 256 257 259 262 263 263 263 260 257 256 255 256 258 260 259 259 258 257 256 257 257 257 257 258 258 257 257 257 258 259 259 259 260 262 263 264 264 265 264 263 262 260 259 258
182 178 174 176 170 179 197 204 198 187 200 236 155 164 194 192 141 117 100 108 246 292 293 222 223 277 271 260 245 234 242 232 230 240 236 236 239 242 248 252 254 256 258 258 259 260 261 261 260 259 258 258 258 260 263 263 262 261 260 259 258 258 258 258 258 258 258 258 258 258 259 260 260 261 263 264 265 265 265 265 265 265 265 265 263 262
176 182 182 177 183 195 199 201 180 174 200 229 146 161 184 188 162 117 93 108 7 353 276 245 122 276 268 253 213 220 238 238 229 235 239 236 237 239 245 251 255 259 261 260 260 261 261 261 260 259 261 262 263 265 266 266 265 264 262 261 260 259 259 258 257 257 257 258 259 259 259 259 260 262 263 264 264 264 264 264 265 265 265 265 265 265
182 193 190 179 190 197 180 157 151 175 202 179 140 138 152 175 178 154 131 146 14 338 255 243 159 243 270 234 166 203 232 239 229 231 240 239 240 241 244 251 256 258 260 261 261 262 263 262 261 262 264 264 264 266 268 268 266 263 261 260 259 258 258 258 257 256 257 257 257 258 258 259 260 262 262 262 262 262 263 263 264 265 265 265 265 266
174 191 188 181 195 178 146 154 170 180 172 120 106 92 101 136 140 112 114 138 260 255 249 242 193 207 269 247 174 198 216 215 203 220 241 241 243 244 245 249 254 256 258 258 259 261 263 263 263 264 264 263 264 267 268 269 267 263 260 259 258 258 258 258 257 256 256 257 257 257 258 260 261 262 262 261 261 261 262 263 265 265 266 267 267 267
157 169 168 184 188 156 131 163 176 166 154 135 117 117 116 48 89 93 98 149 211 238 249 247 208 203 252 246 172 218 252 186 193 211 227 234 240 245 246 248 253 256 258 257 258 260 262 265 265 264 263 263 264 267 268 270 269 264 261 260 260 259 257 256 255 255 255 256 256 257 258 260 261 262 261 261 262 262 263 265 266 266 266 267 267 267
197 180 159 171 172 156 147 140 106 147 162 159 141 148 165 187 177 190 201 187 214 236 250 230 180 210 246 255 254 259 258 227 212 213 222 231 239 248 252 254 256 258 260 259 259 261 263 265 266 265 264 263 264 266 268 272 271 267 265 263 262 262 259 257 255 254 255 255 257 258 259 260 261 262 261 262 263 263 263 264 265 266 266 267 267 268
200 210 175 157 158 166 168 160 163 174 178 177 165 171 185 184 195 208 212 204 221 242 255 79 126 232 264 273 254 240 240 230 227 228 230 236 244 255 261 262 261 261 263 264 263 263 265 267 268 266 265 265 266 268 270 272 273 271 269 266 265 264 261 258 256 255 256 256 257 259 260 261 261 262 262 263 264 263 264 264 265 266 267 267 268 269
193 214 182 170 165 171 179 184 179 165 174 187 172 175 188 183 204 209 206 211 222 245 235 110 166 211 229 256 171 198 251 240 229 229 229 234 242 254 263 265 265 266 266 266 266 265 267 270 270 268 267 269 271 273 274 273 272 269 267 266 265 262 259 257 257 257 257 258 259 260 261 262 262 262 263 264 264 264 264 264 264 265 266 267 268 270
203 223 177 177 172 167 181 190 168 143 165 193 156 177 203 201 204 206 199 202 198 241 218 185 227 222 236 270 243 202 321 332 228 227 229 236 239 247 258 262 265 267 265 265 266 268 270 270 268 269 271 274 275 278 277 274 271 266 264 264 262 260 257 257 258 259 261 261 261 261 261 262 262 263 263 263 264 264 264 265 265 266 267 267 268 269
208 224 171 173 171 175 185 181 166 163 167 177 178 194 211 200 183 186 254 187 121 222 226 203 244 268 280 280 266 242 247 245 213 215 219 226 231 239 250 256 260 261 262 265 267 268 270 269 267 270 273 275 277 279 279 277 273 268 265 264 261 258 255 255 258 261 263 263 261 260 260 260 261 262 263 263 264 265 266 266 266 266 267 267 267 268
194 232 175 170 178 190 186 175 176 184 165 159 194 190 153 84 132 149 246 254 117 230 232 204 229 238 245 266 274 224 228 224 210 205 208 218 227 234 243 250 255 257 259 265 267 267 268 267 267 269 272 276 279 280 277 275 274 269 266 264 260 257 254 256 262 266 266 264 261 258 257 257 260 263 264 266 267 268 267 266 266 266 267 267 268 268
181 351 199 186 188 183 174 168 184 202 187 173 189 174 145 157 189 182 210 222 207 233 245 226 232 231 224 245 266 182 216 217 207 205 205 216 225 231 237 243 251 256 260 264 265 265 264 264 266 270 275 279 282 281 278 275 272 268 264 262 260 259 259 260 265 268 267 263 259 258 258 260 263 264 264 265 267 267 266 266 267 267 268 268 268 268
325 129 280 222 191 153 157 177 183 195 212 314 138 171 176 192 199 196 200 212 213 225 244 245 242 231 224 242 249 232 211 203 196 199 205 214 218 223 227 233 244 255 262 266 265 262 262 263 266 270 275 279 280 279 279 277 274 269 264 262 261 262 261 261 264 267 264 259 258 261 263 264 264 264 264 265 266 266 266 267 268 268 269 269 268 268
28 207 232 319 185 161 172 190 187 190 196 197 178 179 187 194 214 214 206 212 221 223 234 248 252 242 227 237 234 219 211 196 186 193 204 212 216 221 223 225 234 246 256 264 264 261 261 264 269 275 279 280 278 279 281 280 275 268 265 266 267 266 263 261 260 258 255 256 260 265 266 267 266 267 268 268 268 268 268 269 268 269 269 268 268 268
150 196 189 260 193 188 183 148 175 201 190 191 199 189 189 191 183 201 211 210 219 223 210 232 254 254 234 217 205 203 207 198 193 198 201 210 217 223 226 226 231 240 250 260 266 269 270 271 278 287 289 285 283 284 286 281 272 264 264 268 269 266 263 258 253 251 254 259 265 269 270 269 269 269 270 270 269 269 270 270 269 269 268 268 268 269
117 114 177 226 209 234 256 76 69 17 50 227 236 208 203 202 187 200 212 198 202 218 210 230 254 258 252 222 211 213 219 208 205 205 204 214 221 227 233 234 236 241 250 259 267 272 275 277 283 287 286 284 284 284 283 278 268 261 262 266 267 265 264 261 258 258 261 266 270 273 273 271 270 269 269 269 269 270 271 271 271 269 268 268 269 270
97 115 184 240 273 285 303 37 54 32 27 312 268 229 218 213 206 216 220 192 204 213 210 232 250 257 261 223 217 267 269 218 212 210 211 221 227 231 238 243 245 248 253 259 265 269 272 275 279 279 276 275 276 275 274 269 260 256 258 263 267 271 274 273 270 269 269 271 274 275 274 273 271 270 269 269 270 271 273 273 272 270 269 270 270 270
177 159 171 198 269 292 277 334 2 43 112 195 247 247 242 227 221 229 231 236 238 211 206 220 236 253 259 172 70 358 349 350 276 222 218 226 233 236 240 245 249 252 255 259 262 267 271 274 277 277 276 275 274 271 266 255 247 248 256 266 275 281 285 284 281 279 277 277 277 276 275 274 272 270 270 271 272 273 274 274 272 270 269 270 270 270
177 169 168 187 213 221 219 229 234 178 140 169 230 248 259 245 230 233 228 226 230 212 210 225 234 255 268 256 20 5 7 348 315 265 236 236 239 244 247 248 252 257 260 265 269 272 273 273 274 276 278 279 276 270 258 243 236 242 253 273 289 293 292 289 286 285 284 283 281 281 280 278 274 272 271 272 274 275 276 275 273 271 270 270 270 270
156 227 188 197 216 223 221 143 105 107 118 149 191 199 219 255 263 270 251 231 237 227 223 228 228 248 265 262 256 297 13 330 295 288 271 257 252 253 254 255 259 263 267 271 274 272 270 269 271 277 283 285 279 263 243 228 225 235 253 282 305 309 306 301 298 297 297 294 289 286 286 285 281 277 274 274 275 276 276 275 274 272 271 271 270 269
72 227 207 214 228 237 239 199 153 156 184 200 212 217 222 230 246 259 255 262 318 273 237 235 236 237 250 258 258 280 7 335 303 302 300 296 289 279 273 270 268 268 269 269 268 269 271 275 279 283 286 285 275 250 229 221 220 233 270 300 309 312 315 313 309 307 306 302 296 290 290 292 289 283 278 275 274 274 274 274 274 273 272 270 269 269
103 210 205 209 230 246 247 198 175 184 203 215 221 229 231 220 211 225 240 245 248 245 246 304 300 266 255 273 289 2 18 336 320 319 319 322 322 319 313 300 285 276 273 273 277 281 285 288 288 286 284 281 268 240 226 225 226 246 299 313 313 313 315 313 310 308 306 303 299 293 291 292 291 287 283 279 276 275 275 275 275 274 272 270 269 268
149 208 194 191 228 246 226 170 176 182 188 208 212 217 219 213 208 214 226 225 216 222 221 274 291 289 279 283 293 326 334 315 318 327 326 324 322 321 319 314 306 298 293 292 294 295 294 292 287 281 276 270 260 244 236 235 237 267 304 314 315 315 314 311 309 308 305 302 301 298 294 291 290 289 288 286 283 280 279 278 276 274 271 270 269 268
207 204 182 171 221 243 214 187 184 178 189 213 211 200 194 196 202 209 217 209 203 223 209 189 261 283 278 282 293 298 299 302 315 332 323 311 309 307 305 305 308 309 311 309 303 299 298 295 288 281 272 265 265 261 256 256 263 286 303 310 313 314 313 310 310 309 304 300 301 302 299 294 291 291 292 292 291 287 283 281 278 275 272 271 269 266
200 201 148 159 214 236 202 194 192 186 206 224 215 197 193 193 193 199 200 187 189 199 181 170 236 263 269 299 304 299 295 296 294 285 282 289 295 297 297 298 299 302 306 309 306 300 295 292 288 287 285 281 279 275 275 284 293 298 303 307 309 310 310 309 309 309 305 303 304 303 302 298 294 292 294 296 296 292 287 283 280 277 275 272 270 267
171 171 141 179 214 238 180 181 183 183 207 225 217 203 200 197 187 183 192 197 196 182 168 199 234 242 259 279 286 290 296 299 287 276 270 276 282 291 298 299 297 294 291 293 296 295 292 291 291 291 288 286 282 279 283 292 298 300 302 304 306 307 307 306 307 307 306 306 306 304 303 301 296 293 296 300 302 299 293 288 284 281 278 275 272 268
163 165 164 172 182 210 162 153 162 195 215 233 258 208 200 196 188 197 214 206 193 184 185 221 239 238 245 245 251 268 275 275 280 284 281 278 282 292 298 297 295 290 282 277 278 281 284 287 289 288 285 284 285 286 289 294 298 301 302 304 305 305 305 304 304 305 305 303 302 302 303 301 296 292 296 302 307 307 303 298 292 286 280 276 273 268
162 161 156 138 141 166 123 114 167 214 204 28 339 285 207 197 193 203 227 217 189 198 210 229 243 236 230 235 244 251 262 279 289 289 287 287 289 290 290 293 295 291 284 274 268 269 275 280 284 287 289 291 293 295 296 298 301 304 305 306 305 303 302 301 301 302 302 300 299 299 299 298 293 290 292 299 306 310 309 306 300 291 283 277 273 269
156 158 151 139 154 167 65 141 209 218 84 26 291 280 201 169 180 188 240 242 196 195 204 218 233 236 232 241 246 251 270 300 300 290 290 292 292 287 285 292 303 306 301 292 280 273 275 281 289 297 300 300 300 300 301 303 306 309 309 307 305 302 300 300 299 298 298 298 296 295 294 294 291 288 290 294 299 305 308 307 303 294 286 279 274 267
146 149 133 142 187 180 136 204 253 319 8 307 259 233 146 155 165 159 212 253 205 191 202 215 230 238 239 244 249 256 283 311 300 289 291 294 300 303 300 303 318 325 324 320 310 296 289 292 301 309 310 307 302 300 301 304 309 311 308 302 298 297 297 298 298 297 296 296 294 293 291 290 288 288 289 290 292 298 303 304 301 294 285 278 272 264
154 166 175 189 197 137 124 225 289 342 288 257 232 177 150 173 178 161 180 251 220 201 204 209 224 234 236 246 251 254 276 298 284 279 311 344 323 315 314 315 322 329 330 330 330 325 319 317 318 318 317 313 309 306 305 305 307 306 301 296 292 293 295 295 294 295 296 297 295 293 290 288 287 288 289 288 290 295 298 299 297 292 283 276 269 260
187 185 152 164 182 144 149 207 215 196 243 251 234 207 183 187 181 144 153 248 243 210 205 208 222 230 231 241 245 235 231 269 269 263 312 325 315 305 309 314 317 325 329 327 327 329 332 332 328 326 324 322 322 323 322 317 310 301 294 291 292 295 294 291 291 295 299 299 297 295 292 289 287 286 287 288 289 292 294 295 293 288 280 272 263 254
199 154 138 168 199 189 176 205 223 224 250 244 231 238 198 179 159 122 192 251 245 194 201 208 219 228 230 236 234 207 193 232 255 274 289 301 304 303 309 311 313 322 329 330 329 330 332 331 329 328 328 328 330 334 335 331 322 310 300 297 298 296 292 288 292 297 298 296 294 294 293 292 289 286 285 286 287 287 288 289 287 282 275 269 260 251
190 182 184 195 208 201 195 220 248 250 251 243 221 185 150 145 143 168 217 233 265 197 210 212 219 229 234 236 225 205 230 245 257 271 282 295 306 310 315 315 315 320 325 326 326 328 329 328 328 328 329 331 334 336 337 336 330 323 318 316 312 302 292 289 292 294 292 290 289 290 290 290 291 290 285 282 282 281 283 285 282 276 271 266 260 252
181 189 189 191 206 208 194 214 265 268 254 238 202 180 166 153 189 219 205 138 298 269 227 197 216 231 238 240 237 241 257 267 272 277 289 305 312 315 319 319 317 318 320 321 322 326 328 327 328 329 329 332 335 337 338 337 333 330 328 326 322 314 302 295 293 290 286 285 285 285 286 287 290 291 288 283 280 277 279 281 278 272 266 263 260 254
175 176 191 192 194 185 168 188 224 258 258 172 144 155 177 187 223 229 198 244 257 253 229 204 235 257 270 277 278 279 284 289 290 295 305 311 313 314 315 316 316 317 317 318 320 326 330 329 327 328 329 331 334 336 338 337 334 333 331 328 328 325 315 309 306 300 295 292 288 285 284 285 287 288 288 286 283 278 275 276 276 270 263 260 259 255
185 176 190 198 190 180 186 201 206 225 218 166 163 187 211 216 236 249 250 262 268 272 274 267 277 296 305 306 307 306 303 302 303 308 312 311 310 312 312 313 314 315 316 319 322 327 331 330 327 326 325 327 331 333 336 336 334 332 330 329 330 327 319 314 316 313 310 309 306 299 290 284 281 282 283 285 285 280 273 271 271 268 263 258 256 255
214 170 153 190 213 195 189 219 243 264 267 247 237 259 254 241 254 271 290 295 292 295 308 317 313 312 311 313 315 312 310 313 314 314 314 312 312 314 314 314 316 319 322 324 324 327 330 328 326 324 322 323 326 329 330 331 331 329 329 329 330 328 322 319 318 315 314 315 316 315 308 297 284 277 276 279 282 281 275 270 268 266 262 257 253 251
252 105 93 125 263 283 261 256 258 269 276 274 270 272 274 272 277 287 296 299 297 299 311 322 320 315 312 314 316 314 314 318 319 317 318 320 319 319 319 319 320 323 324 323 322 324 326 324 322 321 320 320 322 324 325 326 325 324 325 327 328 326 323 319 316 314 312 312 313 316 315 311 301 288 278 273 275 278 276 272 268 264 260 257 252 249
311 156 104 113 273 332 283 268 262 265 273 277 283 287 283 279 283 291 297 299 298 301 306 310 311 310 307 307 312 316 314 315 316 316 318 320 318 316 316 316 316 316 316 316 317 319 320 319 317 317 317 317 317 319 321 321 320 319 319 322 325 324 321 316 312 311 310 309 309 310 311 313 312 304 291 278 272 271 272 271 268 264 259 255 252 250
269 153 162 206 214 194 239 268 276 278 280 282 285 284 282 282 286 291 294 294 295 296 297 300 306 307 304 303 307 311 309 308 310 312 313 313 311 309 309 309 309 310 310 311 313 315 315 314 313 313 314 313 314 316 318 316 315 315 315 317 320 322 320 316 312 310 308 307 307 307 307 309 311 310 303 289 276 270 268 267 266 265 262 258 254 252
142 144 187 194 227 274 273 274 280 287 289 284 279 279 282 286 288 291 292 292 294 294 293 296 301 303 302 301 302 303 302 302 304 306 306 306 305 304 304 304 305 305 306 306 309 311 310 310 310 310 311 312 313 315 316 313 312 313 314 315 317 319 319 317 314 310 307 305 305 305 305 307 307 307 306 298 285 274 269 266 265 264 264 263 259 255
159 202 199 153 272 276 261 255 257 267 279 276 276 282 290 292 289 291 291 290 290 290 291 294 296 297 296 296 296 297 297 297 299 300 299 299 299 299 300 301 301 302 302 303 304 305 305 306 307 308 309 310 311 313 314 312 310 311 313 315 316 317 318 317 316 311 306 305 304 303 303 304 304 304 304 300 291 280 272 269 266 264 263 263 261 258
199 209 190 175 225 245 250 256 255 245 253 271 277 281 283 284 287 288 286 285 285 285 288 290 292 292 292 292 291 291 292 293 296 297 295 295 295 296 296 298 299 300 300 301 301 300 301 303 306 307 307 308 309 310 310 310 308 308 310 314 316 316 315 315 315 312 308 305 303 302 301 300 301 302 301 298 293 285 276 270 267 265 263 261 259 257